Flag for Germany Weather past 2 weeks in Zwickau, Saxony, Germany

Now
53 °F

Overcast.


Feels Like: 53 °F
Forecast: 46 / 60 °F
Wind: 2 mph from South

Location: Gera-Leumnitz

Current Time: May 6, 2015 at 4:25:57 AM

Latest Report: May 6, 2015 at 4:00 AM


Visibility: 11 mi

Pressure: 29.91 "Hg

Humidity: 91%

Dew point: 51 °F

Location of ZwickauLocation

Historic Weather in Zwickau — Graph

°F

Zwickau temperature yesterday

Maximum temperature yesterday: 74 °F (at 2:00 PM)
Minimum temperature yesterday: 55 °F (at 1:00 AM)
Average temperature yesterday: 65 °F

Past Weeks' High & Low Weather Summary

 TemperatureHumidityPressure
High74 °F (May 5, 2:00 PM)100% (Apr 23, 7:00 AM)30.39 "Hg (Apr 23, 7:00 AM)
Low31 °F (Apr 23, 6:00 AM)20% (Apr 21, 6:00 PM)29.56 "Hg (Apr 27, 12:00 PM)
Average52 °F70%29.92 "Hg
* Reported Apr 21 3:00 AM — May 6 3:00 AM, Zwickau, Weather by CustomWeather, © 2015

Note: Actual official high and low records may vary slightly from our data, if they occured in-between our weather recording intervals... More about our weather records

Advertising

Zwickau weather history for previous 24 hours

 ConditionsComfort  
Time TempWeatherWind HumidityBarometerVisibility
3:00 AM
Wed, May 6
55 °FOvercast.1 mph86%29.90 "Hg22 mi
2:00 AM56 °FOvercast.1 mph87%29.90 "Hg19 mi
1:00 AM57 °FOvercast.1 mph83%29.88 "Hg22 mi
12:00 AM58 °FOvercast.2 mph80%29.86 "Hg28 mi
11:00 PM
Tue, May 5
60 °FOvercast.5 mph77%29.85 "Hg28 mi
10:00 PM65 °FOvercast.5 mph65%29.77 "Hg22 mi
9:00 PM66 °FOvercast.6 mph59%29.73 "Hg25 mi
8:00 PM68 °FOvercast.9 mph56%29.70 "Hg28 mi
7:00 PM69 °FOvercast.8 mph58%29.67 "Hg34 mi
6:00 PM69 °FLow clouds.8 mph59%29.67 "Hg37 mi
5:00 PM69 °FLight rain. Overcast.8 mph58%29.68 "Hg40 mi
4:00 PM72 °FOvercast.8 mph55%29.67 "Hg37 mi
3:00 PM74 °FOvercast.5 mph61%29.63 "Hg47 mi
2:00 PM74 °FOvercast.6 mph60%29.61 "Hg47 mi
1:00 PM73 °FOvercast.3 mph65%29.63 "Hg28 mi
12:00 PM68 °FOvercast.5 mph71%29.64 "Hg47 mi
11:00 AM66 °FOvercast.5 mph69%29.63 "Hg31 mi
10:00 AM66 °FOvercast.10 mph65%29.63 "Hg47 mi
9:00 AM64 °FOvercast.8 mph69%29.62 "Hg47 mi
8:00 AM62 °FOvercast.8 mph72%29.63 "Hg47 mi
7:00 AM60 °FOvercast.5 mph79%29.65 "Hg47 mi
6:00 AM58 °FOvercast.5 mph87%29.67 "Hg40 mi
5:00 AM59 °FDrizzle. Overcast.5 mph87%29.66 "Hg19 mi
4:00 AM59 °FLow clouds.6 mph86%29.70 "Hg25 mi
Weather by CustomWeather, © 2015

See weather overviewHow to use our weather pages